Time,TemperatureF,DewpointF,PressureIn,WindDirection,WindDirectionDegrees,WindSpeedMPH,WindSpeedGustMPH,Humidity,HourlyPrecipIn,Conditions,Clouds,dailyrainin,SoftwareType,DateUTC
2013-01-23 00:06:00,12.2,-9.4,30.06,NW,311,6.9,-999.9,38,-99.99,,,-99.99,,2013-01-23 05:06:00,
2013-01-23 00:14:00,12.2,-9.4,30.06,NW,310,5.8,-999.9,38,-99.99,,,-99.99,,2013-01-23 05:14:00,
2013-01-23 00:20:00,12.2,-9.4,30.06,NW,310,5.8,-999.9,38,-99.99,,,-99.99,,2013-01-23 05:20:00,
2013-01-23 00:27:00,12.2,-9.4,30.06,NNW,328,4.6,-999.9,38,-99.99,,,-99.99,,2013-01-23 05:27:00,
2013-01-23 00:46:00,12.2,-7.6,30.05,NW,307,5.8,-999.9,41,-99.99,,,-99.99,,2013-01-23 05:46:00,
2013-01-23 00:51:00,12.2,-7.6,30.05,NNW,333,16.1,-999.9,41,-99.99,,,-99.99,,2013-01-23 05:51:00,
2013-01-23 01:00:00,12.2,-7.6,30.05,NNW,333,16.1,-999.9,41,-99.99,,,-99.99,,2013-01-23 06:00:00,
2013-01-23 01:06:00,12.2,-7.6,30.05,NNW,340,18.4,-999.9,41,-99.99,,,-99.99,,2013-01-23 06:06:00,
2013-01-23 01:16:00,12.2,-7.6,30.06,NW,320,8.1,-999.9,41,-99.99,,,-99.99,,2013-01-23 06:16:00,
2013-01-23 02:14:00,12.2,-5.8,30.07,NNW,335,8.1,-999.9,45,-99.99,,,-99.99,,2013-01-23 07:14:00,
2013-01-23 02:20:00,12.2,-5.8,30.07,NNW,335,8.1,-999.9,45,-99.99,,,-99.99,,2013-01-23 07:20:00,
2013-01-23 02:25:00,12.2,-5.8,30.08,WNW,295,13.8,-999.9,45,-99.99,,,-99.99,,2013-01-23 07:25:00,
2013-01-23 02:35:00,12.2,-5.8,30.08,NNW,335,8.1,-999.9,45,-99.99,,,-99.99,,2013-01-23 07:35:00,
2013-01-23 02:44:00,12.2,-4.0,30.08,NNW,330,3.5,-999.9,48,-99.99,,,-99.99,,2013-01-23 07:44:00,
2013-01-23 02:51:00,12.2,-5.8,30.08,NNW,330,10.4,-999.9,45,-99.99,,,-99.99,,2013-01-23 07:51:00,
2013-01-23 02:59:00,12.2,-5.8,30.08,NNW,330,10.4,-999.9,45,-99.99,,,-99.99,,2013-01-23 07:59:00,
2013-01-23 03:05:00,10.4,-5.8,30.08,NW,325,11.5,-999.9,48,-99.99,,,-99.99,,2013-01-23 08:05:00,
2013-01-23 03:14:00,10.4,-7.6,30.09,NNW,346,9.2,-999.9,44,-99.99,,,-99.99,,2013-01-23 08:14:00,
2013-01-23 03:26:00,10.4,-7.6,30.08,NNW,344,8.1,-999.9,44,-99.99,,,-99.99,,2013-01-23 08:26:00,
2013-01-23 03:36:00,12.2,-5.8,30.08,NW,307,10.4,-999.9,45,-99.99,,,-99.99,,2013-01-23 08:36:00,
2013-01-23 03:46:00,10.4,-5.8,30.08,NW,320,5.8,-999.9,48,-99.99,,,-99.99,,2013-01-23 08:46:00,
2013-01-23 03:54:00,10.4,-5.8,30.08,NW,325,9.2,-999.9,48,-99.99,,,-99.99,,2013-01-23 08:54:00,
2013-01-23 04:16:00,10.4,-5.8,30.08,WNW,301,3.5,-999.9,48,-99.99,,,-99.99,,2013-01-23 09:16:00,
2013-01-23 04:22:00,10.4,-5.8,30.08,NW,315,8.1,-999.9,48,-99.99,,,-99.99,,2013-01-23 09:22:00,
2013-01-23 04:30:00,10.4,-5.8,30.08,NW,315,8.1,-999.9,48,-99.99,,,-99.99,,2013-01-23 09:30:00,
2013-01-23 04:36:00,10.4,-5.8,30.08,WNW,301,6.9,-999.9,48,-99.99,,,-99.99,,2013-01-23 09:36:00,
2013-01-23 04:46:00,10.4,-5.8,30.08,NW,305,9.2,-999.9,48,-99.99,,,-99.99,,2013-01-23 09:46:00,
2013-01-23 04:54:00,10.4,-5.8,30.08,West,274,2.3,-999.9,48,-99.99,,,-99.99,,2013-01-23 09:54:00,
2013-01-23 05:07:00,10.4,-5.8,30.08,NW,318,10.4,-999.9,48,-99.99,,,-99.99,,2013-01-23 10:07:00,
2013-01-23 05:16:00,10.4,-5.8,30.08,WNW,285,3.5,-999.9,48,-99.99,,,-99.99,,2013-01-23 10:16:00,
2013-01-23 05:26:00,10.4,-5.8,30.08,NNW,333,16.1,-999.9,48,-99.99,,,-99.99,,2013-01-23 10:26:00,
2013-01-23 05:34:00,10.4,-5.8,30.09,NNW,334,9.2,-999.9,48,-99.99,,,-99.99,,2013-01-23 10:34:00,
2013-01-23 05:46:00,10.4,-5.8,30.08,NNW,340,11.5,-999.9,48,-99.99,,,-99.99,,2013-01-23 10:46:00,
2013-01-23 05:56:00,10.4,-5.8,30.09,NW,321,8.1,-999.9,48,-99.99,,,-99.99,,2013-01-23 10:56:00,
2013-01-23 06:26:00,10.4,-4.0,30.09,NNW,336,12.7,-999.9,52,-99.99,,,-99.99,,2013-01-23 11:26:00,
2013-01-23 06:36:00,10.4,-4.0,30.10,NW,315,4.6,-999.9,52,-99.99,,,-99.99,,2013-01-23 11:36:00,
2013-01-23 06:46:00,10.4,-4.0,30.10,NNW,327,12.7,-999.9,52,-99.99,,,-99.99,,2013-01-23 11:46:00,
2013-01-23 06:56:00,10.4,-4.0,30.10,NNW,339,6.9,-999.9,52,-99.99,,,-99.99,,2013-01-23 11:56:00,
2013-01-23 07:15:00,10.4,-4.0,30.10,NW,322,8.1,-999.9,52,-99.99,,,-99.99,,2013-01-23 12:15:00,
2013-01-23 07:24:00,10.4,-4.0,30.10,NNW,331,11.5,-999.9,52,-99.99,,,-99.99,,2013-01-23 12:24:00,
2013-01-23 07:36:00,10.4,-2.2,30.11,WNW,301,3.5,-999.9,57,-99.99,,,-99.99,,2013-01-23 12:36:00,
2013-01-23 07:45:00,10.4,-2.2,30.11,WNW,294,4.6,-999.9,57,-99.99,,,-99.99,,2013-01-23 12:45:00,
2013-01-23 07:55:00,10.4,-2.2,30.11,WNW,289,4.6,-999.9,57,-99.99,,,-99.99,,2013-01-23 12:55:00,
2013-01-23 08:06:00,10.4,-2.2,30.10,NW,318,8.1,-999.9,57,-99.99,,,-99.99,,2013-01-23 13:06:00,
2013-01-23 08:16:00,10.4,-2.2,30.10,NNW,329,5.8,-999.9,57,-99.99,,,-99.99,,2013-01-23 13:16:00,
2013-01-23 08:24:00,10.4,-2.2,30.10,NW,315,8.1,-999.9,57,-99.99,,,-99.99,,2013-01-23 13:24:00,
2013-01-23 08:30:00,12.2,-2.2,30.09,WNW,289,5.8,-999.9,53,-99.99,,,-99.99,,2013-01-23 13:30:00,
2013-01-23 08:35:00,12.2,-2.2,30.09,WNW,289,5.8,-999.9,53,-99.99,,,-99.99,,2013-01-23 13:35:00,
2013-01-23 08:43:00,10.4,-4.0,30.09,NW,324,9.2,-999.9,52,-99.99,,,-99.99,,2013-01-23 13:43:00,
2013-01-23 08:50:00,12.2,-2.2,30.08,NNW,330,8.1,-999.9,53,-99.99,,,-99.99,,2013-01-23 13:50:00,
2013-01-23 08:55:00,12.2,-2.2,30.08,NNW,330,8.1,-999.9,53,-99.99,,,-99.99,,2013-01-23 13:55:00,
2013-01-23 09:04:00,12.2,-2.2,30.08,NNW,344,9.2,-999.9,53,-99.99,,,-99.99,,2013-01-23 14:04:00,
2013-01-23 09:10:00,12.2,-2.2,30.08,NNW,344,9.2,-999.9,53,-99.99,,,-99.99,,2013-01-23 14:10:00,
2013-01-23 09:15:00,12.2,-2.2,30.08,WNW,297,4.6,-999.9,53,-99.99,,,-99.99,,2013-01-23 14:15:00,
2013-01-23 09:24:00,12.2,-2.2,30.07,North,351,6.9,-999.9,53,-99.99,,,-99.99,,2013-01-23 14:24:00,
2013-01-23 09:29:00,12.2,-2.2,30.07,North,351,6.9,-999.9,53,-99.99,,,-99.99,,2013-01-23 14:29:00,
2013-01-23 09:36:00,12.2,-4.0,30.06,NNW,340,6.9,-999.9,48,-99.99,,,-99.99,,2013-01-23 14:36:00,
2013-01-23 09:44:00,12.2,-4.0,30.06,WNW,302,8.1,-999.9,48,-99.99,,,-99.99,,2013-01-23 14:44:00,
2013-01-23 09:50:00,12.2,-4.0,30.06,WNW,302,8.1,-999.9,48,-99.99,,,-99.99,,2013-01-23 14:50:00,
2013-01-23 09:56:00,14.0,-4.0,30.06,NW,313,3.5,-999.9,45,-99.99,,,-99.99,,2013-01-23 14:56:00,
2013-01-23 10:04:00,14.0,-4.0,30.05,NW,321,8.1,-999.9,45,-99.99,,,-99.99,,2013-01-23 15:04:00,
2013-01-23 10:10:00,14.0,-4.0,30.05,North,8,4.6,-999.9,45,-99.99,,,-99.99,,2013-01-23 15:10:00,
2013-01-23 10:15:00,14.0,-4.0,30.05,North,8,4.6,-999.9,45,-99.99,,,-99.99,,2013-01-23 15:15:00,
2013-01-23 10:23:00,14.0,-4.0,30.05,NNW,339,11.5,-999.9,45,-99.99,,,-99.99,,2013-01-23 15:23:00,
2013-01-23 10:30:00,14.0,-5.8,30.05,NNW,339,12.7,-999.9,41,-99.99,,,-99.99,,2013-01-23 15:30:00,
2013-01-23 10:36:00,14.0,-5.8,30.05,NNW,339,12.7,-999.9,41,-99.99,,,-99.99,,2013-01-23 15:36:00,
2013-01-23 10:44:00,14.0,-4.0,30.05,NW,307,2.3,-999.9,45,-99.99,,,-99.99,,2013-01-23 15:44:00,
2013-01-23 10:49:00,14.0,-4.0,30.05,NW,307,2.3,-999.9,45,-99.99,,,-99.99,,2013-01-23 15:49:00,
2013-01-23 10:56:00,15.8,-5.8,30.04,North,349,13.8,-999.9,38,-99.99,,,-99.99,,2013-01-23 15:56:00,
2013-01-23 11:04:00,15.8,-7.6,30.03,NW,311,3.5,-999.9,35,-99.99,,,-99.99,,2013-01-23 16:04:00,
2013-01-23 11:10:00,17.6,-5.8,30.02,WNW,301,6.9,-999.9,35,-99.99,,,-99.99,,2013-01-23 16:10:00,
2013-01-23 11:16:00,17.6,-5.8,30.02,WNW,301,6.9,-999.9,35,-99.99,,,-99.99,,2013-01-23 16:16:00,
2013-01-23 11:24:00,15.8,-7.6,30.01,NNW,333,16.1,-999.9,35,-99.99,,,-99.99,,2013-01-23 16:24:00,
2013-01-23 11:30:00,15.8,-7.6,30.01,NNW,333,16.1,-999.9,35,-99.99,,,-99.99,,2013-01-23 16:30:00,
2013-01-23 11:36:00,15.8,-7.6,30.01,NW,322,15.0,-999.9,35,-99.99,,,-99.99,,2013-01-23 16:36:00,
2013-01-23 11:44:00,15.8,-9.4,30.01,WNW,297,6.9,-999.9,32,-99.99,,,-99.99,,2013-01-23 16:44:00,
2013-01-23 11:50:00,17.6,-9.4,30.00,NNW,330,5.8,-999.9,30,-99.99,,,-99.99,,2013-01-23 16:50:00,
2013-01-23 11:56:00,17.6,-9.4,30.00,NNW,330,5.8,-999.9,30,-99.99,,,-99.99,,2013-01-23 16:56:00,
2013-01-23 12:04:00,17.6,-9.4,29.99,NW,326,9.2,-999.9,30,-99.99,,,-99.99,,2013-01-23 17:04:00,
2013-01-23 12:09:00,17.6,-9.4,29.99,NW,326,9.2,-999.9,30,-99.99,,,-99.99,,2013-01-23 17:09:00,
2013-01-23 12:16:00,17.6,-7.6,29.99,NW,313,5.8,-999.9,32,-99.99,,,-99.99,,2013-01-23 17:16:00,
2013-01-23 12:24:00,17.6,-7.6,29.98,North,354,11.5,-999.9,32,-99.99,,,-99.99,,2013-01-23 17:24:00,
2013-01-23 12:30:00,17.6,-7.6,29.98,North,354,11.5,-999.9,32,-99.99,,,-99.99,,2013-01-23 17:30:00,
2013-01-23 12:36:00,15.8,-9.4,29.98,NNW,338,15.0,-999.9,32,-99.99,,,-99.99,,2013-01-23 17:36:00,
2013-01-23 12:44:00,17.6,-7.6,29.98,NW,318,6.9,-999.9,32,-99.99,,,-99.99,,2013-01-23 17:44:00,
2013-01-23 12:50:00,17.6,-7.6,29.98,NW,318,6.9,-999.9,32,-99.99,,,-99.99,,2013-01-23 17:50:00,
2013-01-23 12:55:00,17.6,-7.6,29.97,NW,311,8.1,-999.9,32,-99.99,,,-99.99,,2013-01-23 17:55:00,
2013-01-23 13:04:00,17.6,-5.8,29.97,WNW,290,3.5,-999.9,35,-99.99,,,-99.99,,2013-01-23 18:04:00,
2013-01-23 13:10:00,15.8,-7.6,29.98,NW,322,8.1,-999.9,35,-99.99,,,-99.99,,2013-01-23 18:10:00,
2013-01-23 13:16:00,15.8,-7.6,29.98,NW,322,8.1,-999.9,35,-99.99,,,-99.99,,2013-01-23 18:16:00,
2013-01-23 13:24:00,17.6,-5.8,29.97,NW,309,3.5,-999.9,35,-99.99,,,-99.99,,2013-01-23 18:24:00,
2013-01-23 13:30:00,15.8,-7.6,29.97,North,353,10.4,-999.9,35,-99.99,,,-99.99,,2013-01-23 18:30:00,
2013-01-23 13:36:00,15.8,-7.6,29.97,North,353,10.4,-999.9,35,-99.99,,,-99.99,,2013-01-23 18:36:00,
2013-01-23 13:44:00,17.6,-7.6,29.97,NW,323,4.6,-999.9,32,-99.99,,,-99.99,,2013-01-23 18:44:00,
2013-01-23 13:50:00,19.4,-7.6,29.97,NW,323,2.3,-999.9,30,-99.99,,,-99.99,,2013-01-23 18:50:00,
2013-01-23 13:56:00,19.4,-7.6,29.97,NW,323,2.3,-999.9,30,-99.99,,,-99.99,,2013-01-23 18:56:00,
2013-01-23 14:04:00,17.6,-7.6,29.96,NNW,342,18.4,-999.9,32,-99.99,,,-99.99,,2013-01-23 19:04:00,
2013-01-23 14:10:00,17.6,-7.6,29.97,North,355,6.9,-999.9,32,-99.99,,,-99.99,,2013-01-23 19:10:00,
2013-01-23 14:16:00,17.6,-7.6,29.97,North,355,6.9,-999.9,32,-99.99,,,-99.99,,2013-01-23 19:16:00,
2013-01-23 14:24:00,19.4,-7.6,29.97,NNW,338,6.9,-999.9,30,-99.99,,,-99.99,,2013-01-23 19:24:00,
2013-01-23 14:30:00,19.4,-7.6,29.97,North,7,5.8,-999.9,30,-99.99,,,-99.99,,2013-01-23 19:30:00,
2013-01-23 14:36:00,19.4,-7.6,29.97,North,7,5.8,-999.9,30,-99.99,,,-99.99,,2013-01-23 19:36:00,
2013-01-23 14:44:00,19.4,-7.6,29.96,WNW,296,5.8,-999.9,30,-99.99,,,-99.99,,2013-01-23 19:44:00,
2013-01-23 14:49:00,19.4,-7.6,29.96,WNW,296,5.8,-999.9,30,-99.99,,,-99.99,,2013-01-23 19:49:00,
2013-01-23 14:55:00,19.4,-7.6,29.97,NW,325,11.5,-999.9,30,-99.99,,,-99.99,,2013-01-23 19:55:00,
2013-01-23 15:03:00,19.4,-7.6,29.97,NW,321,9.2,-999.9,30,-99.99,,,-99.99,,2013-01-23 20:03:00,
2013-01-23 15:10:00,19.4,-7.6,29.97,NW,318,5.8,-999.9,30,-99.99,,,-99.99,,2013-01-23 20:10:00,
2013-01-23 15:16:00,19.4,-7.6,29.97,NW,318,5.8,-999.9,30,-99.99,,,-99.99,,2013-01-23 20:16:00,
2013-01-23 15:24:00,17.6,-7.6,29.98,NW,323,10.4,-999.9,32,-99.99,,,-99.99,,2013-01-23 20:24:00,
2013-01-23 15:30:00,17.6,-5.8,29.98,NW,316,6.9,-999.9,35,-99.99,,,-99.99,,2013-01-23 20:30:00,
2013-01-23 15:35:00,17.6,-5.8,29.98,NW,316,6.9,-999.9,35,-99.99,,,-99.99,,2013-01-23 20:35:00,
2013-01-23 15:44:00,17.6,-7.6,29.98,NNW,331,5.8,-999.9,32,-99.99,,,-99.99,,2013-01-23 20:44:00,
2013-01-23 15:49:00,17.6,-7.6,29.98,NNW,331,5.8,-999.9,32,-99.99,,,-99.99,,2013-01-23 20:49:00,
2013-01-23 15:56:00,17.6,-7.6,29.99,NW,318,9.2,-999.9,32,-99.99,,,-99.99,,2013-01-23 20:56:00,
2013-01-23 16:03:00,17.6,-7.6,29.99,NW,321,5.8,-999.9,32,-99.99,,,-99.99,,2013-01-23 21:03:00,
2013-01-23 16:14:00,17.6,-7.6,29.99,NNW,331,9.2,-999.9,32,-99.99,,,-99.99,,2013-01-23 21:14:00,
2013-01-23 16:20:00,17.6,-7.6,29.99,NNW,331,9.2,-999.9,32,-99.99,,,-99.99,,2013-01-23 21:20:00,
2013-01-23 16:25:00,17.6,-7.6,30.00,NW,326,9.2,-999.9,32,-99.99,,,-99.99,,2013-01-23 21:25:00,
2013-01-23 16:33:00,17.6,-7.6,30.00,NNW,333,13.8,-999.9,32,-99.99,,,-99.99,,2013-01-23 21:33:00,
2013-01-23 16:40:00,17.6,-5.8,30.01,NNW,332,9.2,-999.9,35,-99.99,,,-99.99,,2013-01-23 21:40:00,
2013-01-23 16:50:00,17.6,-5.8,30.01,NNW,335,9.2,-999.9,35,-99.99,,,-99.99,,2013-01-23 21:50:00,
2013-01-23 16:55:00,17.6,-5.8,30.01,NNW,335,9.2,-999.9,35,-99.99,,,-99.99,,2013-01-23 21:55:00,
2013-01-23 17:00:00,17.6,-5.8,30.02,NNW,337,8.1,-999.9,35,-99.99,,,-99.99,,2013-01-23 22:00:00,
2013-01-23 17:06:00,17.6,-5.8,30.02,NNW,337,8.1,-999.9,35,-99.99,,,-99.99,,2013-01-23 22:06:00,
2013-01-23 17:14:00,17.6,-5.8,30.02,North,350,12.7,-999.9,35,-99.99,,,-99.99,,2013-01-23 22:14:00,
2013-01-23 17:20:00,17.6,-4.0,30.02,NNW,348,13.8,-999.9,38,-99.99,,,-99.99,,2013-01-23 22:20:00,
2013-01-23 17:25:00,17.6,-4.0,30.02,NNW,348,13.8,-999.9,38,-99.99,,,-99.99,,2013-01-23 22:25:00,
2013-01-23 17:34:00,15.8,-5.8,30.03,NW,317,5.8,-999.9,38,-99.99,,,-99.99,,2013-01-23 22:34:00,
2013-01-23 17:40:00,15.8,-4.0,30.03,NW,320,5.8,-999.9,41,-99.99,,,-99.99,,2013-01-23 22:40:00,
2013-01-23 17:45:00,15.8,-4.0,30.03,NW,320,5.8,-999.9,41,-99.99,,,-99.99,,2013-01-23 22:45:00,
2013-01-23 17:53:00,15.8,-4.0,30.04,North,352,3.5,-999.9,41,-99.99,,,-99.99,,2013-01-23 22:53:00,
2013-01-23 17:59:00,15.8,-4.0,30.04,North,352,3.5,-999.9,41,-99.99,,,-99.99,,2013-01-23 22:59:00,
2013-01-23 18:05:00,15.8,-4.0,30.04,North,353,8.1,-999.9,41,-99.99,,,-99.99,,2013-01-23 23:05:00,
2013-01-23 18:13:00,15.8,-2.2,30.05,NNW,343,5.8,-999.9,45,-99.99,,,-99.99,,2013-01-23 23:13:00,
2013-01-23 18:19:00,15.8,-2.2,30.05,NNW,343,5.8,-999.9,45,-99.99,,,-99.99,,2013-01-23 23:19:00,
2013-01-23 18:25:00,17.6,-2.2,30.05,NNW,334,6.9,-999.9,42,-99.99,,,-99.99,,2013-01-23 23:25:00,
2013-01-23 18:34:00,15.8,-4.0,30.05,NNW,334,6.9,-999.9,41,-99.99,,,-99.99,,2013-01-23 23:34:00,
2013-01-23 18:40:00,15.8,-4.0,30.05,NNW,334,6.9,-999.9,41,-99.99,,,-99.99,,2013-01-23 23:40:00,
2013-01-23 18:46:00,15.8,-4.0,30.06,NW,316,6.9,-999.9,41,-99.99,,,-99.99,,2013-01-23 23:46:00,
2013-01-23 18:53:00,15.8,-2.2,30.06,NW,316,8.1,-999.9,45,-99.99,,,-99.99,,2013-01-23 23:53:00,
2013-01-23 19:00:00,15.8,-2.2,30.06,NW,316,8.1,-999.9,45,-99.99,,,-99.99,,2013-01-24 00:00:00,
2013-01-23 19:06:00,15.8,-0.4,30.06,NW,322,8.1,-999.9,49,-99.99,,,-99.99,,2013-01-24 00:06:00,
2013-01-23 19:13:00,15.8,-0.4,30.06,NNW,338,6.9,-999.9,49,-99.99,,,-99.99,,2013-01-24 00:13:00,
2013-01-23 19:19:00,15.8,-0.4,30.06,NNW,338,6.9,-999.9,49,-99.99,,,-99.99,,2013-01-24 00:19:00,
2013-01-23 20:12:00,15.8,-0.4,30.06,NNW,333,6.9,-999.9,49,-99.99,,,-99.99,,2013-01-24 01:12:00,
2013-01-23 20:18:00,15.8,-0.4,30.06,NNW,333,6.9,-999.9,49,-99.99,,,-99.99,,2013-01-24 01:18:00,
2013-01-23 20:26:00,15.8,-0.4,30.06,NW,305,2.3,-999.9,49,-99.99,,,-99.99,,2013-01-24 01:26:00,
2013-01-23 20:31:00,15.8,-0.4,30.06,NW,304,2.3,-999.9,49,-99.99,,,-99.99,,2013-01-24 01:31:00,
2013-01-23 20:38:00,15.8,-0.4,30.06,NW,304,2.3,-999.9,49,-99.99,,,-99.99,,2013-01-24 01:38:00,
2013-01-23 20:46:00,15.8,-0.4,30.06,NW,315,8.1,-999.9,49,-99.99,,,-99.99,,2013-01-24 01:46:00,
2013-01-23 20:52:00,14.0,-0.4,30.06,NW,326,4.6,-999.9,53,-99.99,,,-99.99,,2013-01-24 01:52:00,
2013-01-23 20:58:00,14.0,-0.4,30.06,NW,326,4.6,-999.9,53,-99.99,,,-99.99,,2013-01-24 01:58:00,
2013-01-23 21:05:00,14.0,-0.4,30.06,West,281,1.2,-999.9,53,-99.99,,,-99.99,,2013-01-24 02:05:00,
2013-01-23 21:12:00,15.8,-0.4,30.06,WNW,295,1.2,-999.9,49,-99.99,,,-99.99,,2013-01-24 02:12:00,
2013-01-23 21:18:00,15.8,-0.4,30.06,WNW,295,1.2,-999.9,49,-99.99,,,-99.99,,2013-01-24 02:18:00,
2013-01-23 21:26:00,14.0,-0.4,30.06,NNW,337,4.6,-999.9,53,-99.99,,,-99.99,,2013-01-24 02:26:00,
2013-01-23 21:34:00,15.8,-0.4,30.06,NW,326,3.5,-999.9,49,-99.99,,,-99.99,,2013-01-24 02:34:00,
2013-01-23 21:40:00,14.0,-0.4,30.06,NNW,327,3.5,-999.9,53,-99.99,,,-99.99,,2013-01-24 02:40:00,
2013-01-23 21:48:00,14.0,-0.4,30.06,NNW,327,3.5,-999.9,53,-99.99,,,-99.99,,2013-01-24 02:48:00,
2013-01-23 21:54:00,15.8,-0.4,30.06,NNW,331,3.5,-999.9,49,-99.99,,,-99.99,,2013-01-24 02:54:00,
2013-01-23 22:00:00,14.0,-0.4,30.06,North,0,0.0,-999.9,53,-99.99,,,-99.99,,2013-01-24 03:00:00,
2013-01-23 22:08:00,14.0,-0.4,30.06,North,0,0.0,-999.9,53,-99.99,,,-99.99,,2013-01-24 03:08:00,
2013-01-23 22:14:00,15.8,1.4,30.06,North,0,0.0,-999.9,53,-99.99,,,-99.99,,2013-01-24 03:14:00,
2013-01-23 22:19:00,15.8,1.4,30.06,North,0,0.0,-999.9,53,-99.99,,,-99.99,,2013-01-24 03:19:00,
2013-01-23 22:28:00,14.0,-0.4,30.06,NW,312,3.5,-999.9,53,-99.99,,,-99.99,,2013-01-24 03:28:00,
2013-01-23 22:33:00,14.0,-0.4,30.06,NW,321,5.8,-999.9,53,-99.99,,,-99.99,,2013-01-24 03:33:00,
2013-01-23 22:40:00,14.0,-0.4,30.06,NNW,335,5.8,-999.9,53,-99.99,,,-99.99,,2013-01-24 03:40:00,
2013-01-23 22:48:00,14.0,-0.4,30.06,NNW,335,5.8,-999.9,53,-99.99,,,-99.99,,2013-01-24 03:48:00,
2013-01-23 22:53:00,14.0,-0.4,30.06,WNW,302,3.5,-999.9,53,-99.99,,,-99.99,,2013-01-24 03:53:00,
2013-01-23 22:59:00,14.0,-0.4,30.06,WNW,302,3.5,-999.9,53,-99.99,,,-99.99,,2013-01-24 03:59:00,
2013-01-23 23:07:00,14.0,-0.4,30.06,WNW,282,2.3,-999.9,53,-99.99,,,-99.99,,2013-01-24 04:07:00,
2013-01-23 23:13:00,15.8,1.4,30.06,WNW,292,3.5,-999.9,53,-99.99,,,-99.99,,2013-01-24 04:13:00,
2013-01-23 23:20:00,14.0,1.4,30.07,WNW,288,2.3,-999.9,57,-99.99,,,-99.99,,2013-01-24 04:20:00,
2013-01-23 23:28:00,14.0,1.4,30.07,WNW,288,2.3,-999.9,57,-99.99,,,-99.99,,2013-01-24 04:28:00,
2013-01-23 23:34:00,15.8,3.2,30.06,NW,304,1.2,-999.9,58,-99.99,,,-99.99,,2013-01-24 04:34:00,
2013-01-23 23:40:00,14.0,1.4,30.06,West,265,2.3,-999.9,57,-99.99,,,-99.99,,2013-01-24 04:40:00,
2013-01-23 23:48:00,14.0,1.4,30.06,West,265,2.3,-999.9,57,-99.99,,,-99.99,,2013-01-24 04:48:00,
2013-01-23 23:54:00,14.0,1.4,30.06,West,265,1.2,-999.9,57,-99.99,,,-99.99,,2013-01-24 04:54:00,
2013-01-23 23:59:00,14.0,1.4,30.06,West,265,1.2,-999.9,57,-99.99,,,-99.99,,2013-01-24 04:59:00,